Time,TemperatureF,DewpointF,PressureIn,WindDirection,WindDirectionDegrees,WindSpeedMPH,WindSpeedGustMPH,Humidity,HourlyPrecipIn,Conditions,Clouds,dailyrainin,SolarRadiationWatts/m^2,SoftwareType,DateUTC
2013-01-14 00:06:00,-1.0,-7.0,30.44,SSE,158,2.0,4.0,75,0.00,,,0.00,0,weatherlink.com 1.10,2013-01-14 07:06:00,
2013-01-14 00:21:00,-1.8,-8.0,30.43,SSE,158,2.0,4.0,75,0.00,,,0.00,0,weatherlink.com 1.10,2013-01-14 07:21:00,
2013-01-14 00:36:00,-3.1,-9.0,30.43,SSE,158,2.0,4.0,74,0.00,,,0.00,0,weatherlink.com 1.10,2013-01-14 07:36:00,
2013-01-14 00:51:00,-3.1,-9.0,30.43,SSE,158,0.0,2.0,75,0.00,,,0.00,0,weatherlink.com 1.10,2013-01-14 07:51:00,
2013-01-14 01:07:00,-3.3,-9.0,30.44,SSE,158,0.0,0.0,75,0.00,,,0.00,0,weatherlink.com 1.10,2013-01-14 08:07:00,
2013-01-14 01:23:00,-1.0,-7.0,30.44,SSE,158,0.0,0.0,77,0.00,,,0.00,0,weatherlink.com 1.10,2013-01-14 08:23:00,
2013-01-14 01:38:00,-0.2,-6.0,30.44,SSE,158,3.0,4.0,76,0.00,,,0.00,0,weatherlink.com 1.10,2013-01-14 08:38:00,
2013-01-14 01:53:00,0.7,-5.0,30.44,South,190,5.0,8.0,77,0.00,,,0.00,0,weatherlink.com 1.10,2013-01-14 08:53:00,
2013-01-14 02:08:00,1.5,-4.0,30.44,South,187,4.0,10.0,77,0.00,,,0.00,0,weatherlink.com 1.10,2013-01-14 09:08:00,
2013-01-14 02:23:00,2.0,-4.0,30.44,South,191,7.0,10.0,77,0.00,,,0.00,0,weatherlink.com 1.10,2013-01-14 09:23:00,
2013-01-14 02:39:00,2.8,-3.0,30.43,South,189,5.0,11.0,77,0.00,,,0.00,0,weatherlink.com 1.10,2013-01-14 09:39:00,
2013-01-14 02:54:00,3.0,-3.0,30.43,SSE,166,6.0,7.0,77,0.00,,,0.00,0,weatherlink.com 1.10,2013-01-14 09:54:00,
2013-01-14 03:09:00,3.2,-3.0,30.43,SSE,168,4.0,11.0,77,0.00,,,0.00,0,weatherlink.com 1.10,2013-01-14 10:09:00,
2013-01-14 03:24:00,2.8,-3.0,30.43,South,182,7.0,10.0,77,0.00,,,0.00,0,weatherlink.com 1.10,2013-01-14 10:24:00,
2013-01-14 03:39:00,2.4,-3.0,30.42,South,182,6.0,10.0,77,0.00,,,0.00,0,weatherlink.com 1.10,2013-01-14 10:39:00,
2013-01-14 03:54:00,2.8,-3.0,30.43,South,186,7.0,9.0,77,0.00,,,0.00,0,weatherlink.com 1.10,2013-01-14 10:54:00,
2013-01-14 04:11:00,3.2,-2.0,30.42,SSE,163,5.0,12.0,78,0.00,,,0.00,0,weatherlink.com 1.10,2013-01-14 11:11:00,
2013-01-14 04:26:00,2.6,-3.0,30.42,South,188,4.0,7.0,78,0.00,,,0.00,0,weatherlink.com 1.10,2013-01-14 11:26:00,
2013-01-14 04:41:00,2.4,-3.0,30.42,South,179,0.0,8.0,78,0.00,,,0.00,0,weatherlink.com 1.10,2013-01-14 11:41:00,
2013-01-14 04:56:00,2.4,-3.0,30.42,South,177,0.0,9.0,79,0.00,,,0.00,0,weatherlink.com 1.10,2013-01-14 11:56:00,
2013-01-14 05:11:00,2.6,-3.0,30.43,South,178,6.0,11.0,79,0.00,,,0.00,0,weatherlink.com 1.10,2013-01-14 12:11:00,
2013-01-14 05:26:00,2.8,-2.0,30.44,SSW,196,9.0,11.0,79,0.00,,,0.00,0,weatherlink.com 1.10,2013-01-14 12:26:00,
2013-01-14 05:42:00,2.6,-3.0,30.43,South,179,4.0,12.0,79,0.00,,,0.00,0,weatherlink.com 1.10,2013-01-14 12:42:00,
2013-01-14 05:58:00,2.6,-3.0,30.44,South,175,3.0,8.0,79,0.00,,,0.00,0,weatherlink.com 1.10,2013-01-14 12:58:00,
2013-01-14 06:12:00,2.6,-3.0,30.44,South,187,4.0,12.0,79,0.00,,,0.00,0,weatherlink.com 1.10,2013-01-14 13:12:00,
2013-01-14 06:27:00,2.4,-3.0,30.44,SSW,192,2.0,11.0,78,0.00,,,0.00,0,weatherlink.com 1.10,2013-01-14 13:27:00,
2013-01-14 06:43:00,2.0,-3.0,30.44,South,171,6.0,7.0,78,0.00,,,0.00,0,weatherlink.com 1.10,2013-01-14 13:43:00,
2013-01-14 06:58:00,2.0,-3.0,30.44,South,173,6.0,7.0,78,0.00,,,0.00,0,weatherlink.com 1.10,2013-01-14 13:58:00,
2013-01-14 07:13:00,1.8,-4.0,30.44,SSE,162,3.0,6.0,78,0.00,,,0.00,0,weatherlink.com 1.10,2013-01-14 14:13:00,
2013-01-14 07:29:00,2.0,-3.0,30.45,SSE,163,0.0,6.0,78,0.00,,,0.00,11,weatherlink.com 1.10,2013-01-14 14:29:00,
2013-01-14 07:44:00,1.8,-4.0,30.45,SSE,168,0.0,0.0,77,0.00,,,0.00,21,weatherlink.com 1.10,2013-01-14 14:44:00,
2013-01-14 07:59:00,1.8,-4.0,30.45,South,174,0.0,0.0,78,0.00,,,0.00,37,weatherlink.com 1.10,2013-01-14 14:59:00,
2013-01-14 08:14:00,2.4,-3.0,30.46,South,174,0.0,0.0,78,0.00,,,0.00,40,weatherlink.com 1.10,2013-01-14 15:14:00,
2013-01-14 08:29:00,2.8,-3.0,30.45,East,84,0.0,0.0,77,0.00,,,0.00,49,weatherlink.com 1.10,2013-01-14 15:29:00,
2013-01-14 08:46:00,0.9,-5.0,30.46,NNE,24,0.0,0.0,77,0.00,,,0.00,79,weatherlink.com 1.10,2013-01-14 15:46:00,
2013-01-14 09:01:00,0.1,-6.0,30.45,NNE,15,0.0,0.0,77,0.00,,,0.00,105,weatherlink.com 1.10,2013-01-14 16:01:00,
2013-01-14 09:16:00,0.3,-5.0,30.45,North,360,0.0,0.0,77,0.00,,,0.00,149,weatherlink.com 1.10,2013-01-14 16:16:00,
2013-01-14 09:31:00,1.5,-4.0,30.45,NNW,348,0.0,0.0,78,0.00,,,0.00,181,weatherlink.com 1.10,2013-01-14 16:31:00,
2013-01-14 09:46:00,1.5,-4.0,30.45,North,360,0.0,0.0,78,0.00,,,0.00,197,weatherlink.com 1.10,2013-01-14 16:46:00,
2013-01-14 10:01:00,1.8,-4.0,30.45,North,355,0.0,0.0,78,0.00,,,0.00,207,weatherlink.com 1.10,2013-01-14 17:01:00,
2013-01-14 10:16:00,2.4,-3.0,30.44,North,351,0.0,0.0,78,0.00,,,0.00,265,weatherlink.com 1.10,2013-01-14 17:16:00,
2013-01-14 10:33:00,3.2,-2.0,30.44,NNW,348,0.0,6.0,78,0.00,,,0.00,288,weatherlink.com 1.10,2013-01-14 17:33:00,
2013-01-14 10:47:00,3.4,-2.0,30.43,North,360,0.0,0.0,78,0.00,,,0.00,241,weatherlink.com 1.10,2013-01-14 17:47:00,
2013-01-14 11:02:00,4.5,-1.0,30.42,North,360,0.0,0.0,78,0.00,,,0.00,301,weatherlink.com 1.10,2013-01-14 18:02:00,
2013-01-14 11:18:00,5.0,0.0,30.41,North,349,0.0,0.0,79,0.00,,,0.00,299,weatherlink.com 1.10,2013-01-14 18:18:00,
2013-01-14 11:33:00,5.4,0.0,30.40,NE,55,0.0,0.0,79,0.00,,,0.00,318,weatherlink.com 1.10,2013-01-14 18:33:00,
2013-01-14 11:49:00,6.5,1.0,30.39,NE,43,0.0,0.0,78,0.00,,,0.00,366,weatherlink.com 1.10,2013-01-14 18:49:00,
2013-01-14 12:04:00,7.6,2.0,30.38,North,9,0.0,0.0,78,0.00,,,0.00,320,weatherlink.com 1.10,2013-01-14 19:04:00,
2013-01-14 12:19:00,8.1,2.0,30.37,North,5,4.0,5.0,77,0.00,,,0.00,573,weatherlink.com 1.10,2013-01-14 19:19:00,
2013-01-14 12:34:00,8.1,2.0,30.36,NNW,330,0.0,0.0,77,0.00,,,0.00,501,weatherlink.com 1.10,2013-01-14 19:34:00,
2013-01-14 12:49:00,8.3,3.0,30.35,NE,34,0.0,0.0,77,0.00,,,0.00,390,weatherlink.com 1.10,2013-01-14 19:49:00,
2013-01-14 13:04:00,9.3,3.0,30.35,NE,40,0.0,4.0,76,0.00,,,0.00,380,weatherlink.com 1.10,2013-01-14 20:04:00,
2013-01-14 13:21:00,10.5,3.0,30.35,NE,46,0.0,0.0,73,0.00,,,0.00,330,weatherlink.com 1.10,2013-01-14 20:21:00,
2013-01-14 13:36:00,11.4,4.0,30.35,NNE,17,0.0,0.0,72,0.00,,,0.00,425,weatherlink.com 1.10,2013-01-14 20:36:00,
2013-01-14 13:51:00,12.3,4.0,30.35,ENE,67,0.0,0.0,69,0.00,,,0.00,406,weatherlink.com 1.10,2013-01-14 20:51:00,
2013-01-14 14:06:00,12.1,4.0,30.35,WNW,301,0.0,4.0,69,0.00,,,0.00,230,weatherlink.com 1.10,2013-01-14 21:06:00,
2013-01-14 14:21:00,12.1,4.0,30.35,NE,36,0.0,0.0,69,0.00,,,0.00,181,weatherlink.com 1.10,2013-01-14 21:21:00,
2013-01-14 14:36:00,11.7,3.0,30.36,NE,36,0.0,3.0,68,0.00,,,0.00,169,weatherlink.com 1.10,2013-01-14 21:36:00,
2013-01-14 14:52:00,11.1,3.0,30.37,North,360,7.0,8.0,70,0.00,,,0.00,91,weatherlink.com 1.10,2013-01-14 21:52:00,
2013-01-14 15:07:00,10.0,3.0,30.38,North,360,6.0,9.0,72,0.00,,,0.00,93,weatherlink.com 1.10,2013-01-14 22:07:00,
2013-01-14 15:22:00,9.2,3.0,30.38,NNW,336,8.0,10.0,74,0.00,,,0.00,70,weatherlink.com 1.10,2013-01-14 22:22:00,
2013-01-14 15:38:00,9.0,3.0,30.39,North,360,8.0,10.0,75,0.00,,,0.00,69,weatherlink.com 1.10,2013-01-14 22:38:00,
2013-01-14 15:52:00,9.2,3.0,30.40,NNE,26,0.0,0.0,74,0.00,,,0.00,54,weatherlink.com 1.10,2013-01-14 22:52:00,
2013-01-14 16:08:00,8.6,2.0,30.40,NE,38,0.0,0.0,73,0.00,,,0.00,40,weatherlink.com 1.10,2013-01-14 23:08:00,
2013-01-14 16:24:00,7.6,1.0,30.41,NNE,32,3.0,8.0,75,0.00,,,0.00,19,weatherlink.com 1.10,2013-01-14 23:24:00,
2013-01-14 16:39:00,6.0,0.0,30.42,NNE,24,5.0,10.0,76,0.00,,,0.00,14,weatherlink.com 1.10,2013-01-14 23:39:00,
2013-01-14 16:54:00,5.8,0.0,30.42,NNE,12,7.0,7.0,77,0.00,,,0.00,5,weatherlink.com 1.10,2013-01-14 23:54:00,
2013-01-14 17:09:00,5.6,0.0,30.43,North,360,1.0,8.0,78,0.00,,,0.00,0,weatherlink.com 1.10,2013-01-15 00:09:00,
2013-01-14 17:24:00,5.0,0.0,30.44,North,360,0.0,0.0,78,0.00,,,0.00,0,weatherlink.com 1.10,2013-01-15 00:24:00,
2013-01-14 17:39:00,4.5,-1.0,30.45,North,360,0.0,3.0,78,0.00,,,0.00,0,weatherlink.com 1.10,2013-01-15 00:39:00,
2013-01-14 17:54:00,4.3,-1.0,30.45,North,350,0.0,0.0,78,0.00,,,0.00,0,weatherlink.com 1.10,2013-01-15 00:54:00,
2013-01-14 18:11:00,3.9,-2.0,30.46,NNW,348,0.0,0.0,78,0.00,,,0.00,0,weatherlink.com 1.10,2013-01-15 01:11:00,
2013-01-14 18:26:00,3.9,-1.0,30.46,North,355,0.0,0.0,79,0.00,,,0.00,0,weatherlink.com 1.10,2013-01-15 01:26:00,
2013-01-14 18:41:00,3.5,-2.0,30.46,North,355,0.0,0.0,78,0.00,,,0.00,0,weatherlink.com 1.10,2013-01-15 01:41:00,
2013-01-14 18:56:00,3.0,-2.0,30.45,North,355,0.0,0.0,78,0.00,,,0.00,0,weatherlink.com 1.10,2013-01-15 01:56:00,
2013-01-14 19:11:00,1.1,-5.0,30.46,North,355,0.0,0.0,76,0.00,,,0.00,0,weatherlink.com 1.10,2013-01-15 02:11:00,
2013-01-14 19:27:00,-1.6,-8.0,30.46,North,355,0.0,0.0,75,0.00,,,0.00,0,weatherlink.com 1.10,2013-01-15 02:27:00,
2013-01-14 19:42:00,-4.3,-11.0,30.45,NW,304,0.0,0.0,74,0.00,,,0.00,0,weatherlink.com 1.10,2013-01-15 02:42:00,
2013-01-14 19:58:00,-5.0,-11.0,30.45,WNW,303,0.0,0.0,75,0.00,,,0.00,0,weatherlink.com 1.10,2013-01-15 02:58:00,
2013-01-14 20:12:00,-8.2,-14.0,30.45,WNW,301,0.0,0.0,74,0.00,,,0.00,0,weatherlink.com 1.10,2013-01-15 03:12:00,
2013-01-14 20:27:00,-9.1,-15.0,30.45,SW,230,5.0,8.0,74,0.00,,,0.00,0,weatherlink.com 1.10,2013-01-15 03:27:00,
2013-01-14 20:43:00,-7.2,-13.0,30.45,SW,227,0.0,1.0,75,0.00,,,0.00,0,weatherlink.com 1.10,2013-01-15 03:43:00,
2013-01-14 20:59:00,-7.9,-14.0,30.45,SW,227,0.0,0.0,73,0.00,,,0.00,0,weatherlink.com 1.10,2013-01-15 03:59:00,
2013-01-14 21:16:00,-7.9,-14.0,30.45,SW,227,0.0,0.0,73,0.00,,,0.00,0,weatherlink.com 1.10,2013-01-15 04:16:00,
2013-01-14 21:29:00,-7.9,-14.0,30.45,SW,227,0.0,0.0,73,0.00,,,0.00,0,weatherlink.com 1.10,2013-01-15 04:29:00,
2013-01-14 21:44:00,-8.9,-15.0,30.45,SW,227,3.0,3.0,73,0.00,,,0.00,0,weatherlink.com 1.10,2013-01-15 04:44:00,
2013-01-14 21:59:00,-10.0,-16.0,30.45,SW,227,4.0,5.0,73,0.00,,,0.00,0,weatherlink.com 1.10,2013-01-15 04:59:00,
2013-01-14 22:14:00,-10.0,-17.0,30.45,SW,227,1.0,2.0,72,0.00,,,0.00,0,weatherlink.com 1.10,2013-01-15 05:14:00,
2013-01-14 22:31:00,-10.7,-18.0,30.44,SW,227,0.0,0.0,71,0.00,,,0.00,0,weatherlink.com 1.10,2013-01-15 05:31:00,
2013-01-14 22:46:00,-10.7,-18.0,30.44,SW,227,0.0,0.0,71,0.00,,,0.00,0,weatherlink.com 1.10,2013-01-15 05:46:00,
2013-01-14 23:01:00,-11.7,-19.0,30.44,SW,227,3.0,4.0,70,0.00,,,0.00,0,weatherlink.com 1.10,2013-01-15 06:01:00,
2013-01-14 23:16:00,-11.7,-19.0,30.44,SW,227,3.0,3.0,71,0.00,,,0.00,0,weatherlink.com 1.10,2013-01-15 06:16:00,
2013-01-14 23:46:00,-10.3,-17.0,30.44,SW,227,0.0,3.0,71,0.00,,,0.00,0,weatherlink.com 1.10,2013-01-15 06:46:00,